Simultaneous Nadir Overpasses (SNOs) Predictions

Prediction of SNOs between GOES-15 and METOP-C Satellite Orbit:

Table of predicted SNOs for the next 14.0 days since TLE Epoch: 8/26/2022
Index Date Time (GOES-15) GOES-15 Lat,Lon METOP-C Lat,Lon Distance(km) Time Diff (sec)
1 08/27/2022 06:02:39 0.15,-127.95 0.19,-127.75 22.07 80
2 08/28/2022 18:18:51 -0.19,-128.01 0.75,-132.33 492.39 80
3 08/29/2022 18:00:51 -0.17,-128.00 -0.34,-127.33 76.18 80
4 08/31/2022 06:17:10 0.20,-127.90 -0.68,-131.93 458.80 80
5 09/01/2022 05:59:10 0.18,-127.88 0.41,-126.93 108.81 80
6 09/02/2022 18:15:21 -0.21,-127.92 0.57,-131.50 407.17 80
7 09/03/2022 17:57:21 -0.19,-127.90 -0.52,-126.50 160.42 80
8 09/05/2022 06:13:40 0.22,-127.79 -0.52,-131.09 375.59 80
9 09/06/2022 05:55:40 0.20,-127.76 0.57,-126.09 190.90 80
10 09/07/2022 18:11:51 -0.22,-127.79 0.39,-130.66 326.91 80
11 09/08/2022 17:53:50 -0.21,-127.76 -0.70,-125.66 240.06 80
